TimeCST,TemperatureF,Dew PointF,Humidity,Sea Level PressureIn,VisibilityMPH,Wind Direction,Wind SpeedMPH,Gust SpeedMPH,PrecipitationIn,Events,Conditions,WindDirDegrees,DateUTC
12:16 AM,17.4,13.8,86,29.69,10.0,SSW,10.4,-,N/A,,Clear,210,2014-01-19 06:16:00
12:35 AM,18.1,14.5,86,29.68,10.0,SSW,9.2,-,N/A,,Clear,210,2014-01-19 06:35:00
12:56 AM,18.9,15.3,86,29.66,10.0,SSW,6.9,-,N/A,,Clear,200,2014-01-19 06:56:00
1:16 AM,19.9,16.5,87,29.63,10.0,SSW,10.4,-,N/A,,Clear,210,2014-01-19 07:16:00
1:35 AM,20.8,17.4,87,29.62,10.0,SSW,10.4,-,N/A,,Clear,200,2014-01-19 07:35:00
1:56 AM,22.3,19.0,87,29.61,10.0,SSW,10.4,-,N/A,,Clear,210,2014-01-19 07:56:00
2:16 AM,23.9,20.1,85,29.60,10.0,SSW,10.4,-,N/A,,Clear,210,2014-01-19 08:16:00
2:35 AM,25.3,21.2,84,29.59,10.0,SW,10.4,-,N/A,,Clear,220,2014-01-19 08:35:00
2:56 AM,26.2,21.6,82,29.59,10.0,SW,9.2,-,N/A,,Clear,220,2014-01-19 08:56:00
3:16 AM,26.1,21.2,82,29.59,10.0,SW,5.8,-,N/A,,Clear,230,2014-01-19 09:16:00
3:35 AM,26.2,21.4,82,29.58,10.0,SW,8.1,-,N/A,,Clear,230,2014-01-19 09:35:00
3:56 AM,26.6,21.2,80,29.57,10.0,SW,10.4,17.3,N/A,,Clear,230,2014-01-19 09:56:00
4:16 AM,27.5,21.6,78,29.56,10.0,SW,10.4,-,N/A,,Clear,230,2014-01-19 10:16:00
4:35 AM,27.5,21.2,77,29.55,10.0,SW,8.1,16.1,N/A,,Clear,230,2014-01-19 10:35:00
4:56 AM,26.6,20.7,78,29.55,10.0,SW,6.9,-,N/A,,Clear,230,2014-01-19 10:56:00
5:16 AM,25.7,20.3,80,29.55,10.0,SW,6.9,-,N/A,,Clear,220,2014-01-19 11:16:00
5:35 AM,25.3,20.1,81,29.54,10.0,SW,4.6,-,N/A,,Clear,230,2014-01-19 11:35:00
5:56 AM,24.8,19.6,81,29.54,10.0,SW,3.5,-,N/A,,Clear,220,2014-01-19 11:56:00
6:15 AM,24.6,19.6,81,29.53,10.0,SW,4.6,-,N/A,,Clear,230,2014-01-19 12:15:00
6:35 AM,24.6,19.8,82,29.54,10.0,SW,3.5,-,N/A,,Clear,230,2014-01-19 12:35:00
6:56 AM,23.5,19.2,84,29.53,10.0,WSW,4.6,-,N/A,,Clear,240,2014-01-19 12:56:00
7:15 AM,25.3,20.5,82,29.53,10.0,SW,5.8,-,N/A,,Clear,230,2014-01-19 13:15:00
7:35 AM,26.8,21.7,81,29.53,10.0,WSW,5.8,-,N/A,,Clear,240,2014-01-19 13:35:00
7:56 AM,25.7,20.5,81,29.52,10.0,Calm,Calm,-,N/A,,Clear,0,2014-01-19 13:56:00
8:15 AM,25.3,20.5,82,29.51,10.0,SW,4.6,-,N/A,,Clear,230,2014-01-19 14:15:00
8:35 AM,27.3,21.9,80,29.52,10.0,WSW,5.8,-,N/A,,Clear,240,2014-01-19 14:35:00
8:56 AM,28.4,22.5,78,29.52,10.0,WSW,3.5,-,N/A,,Clear,240,2014-01-19 14:56:00
9:15 AM,28.0,22.3,79,29.54,10.0,Calm,Calm,-,N/A,,Clear,0,2014-01-19 15:15:00
9:36 AM,28.9,22.8,78,29.55,10.0,WSW,4.6,-,N/A,,Clear,240,2014-01-19 15:36:00
9:56 AM,28.9,22.6,77,29.56,10.0,WSW,5.8,-,N/A,,Clear,240,2014-01-19 15:56:00
10:15 AM,30.4,23.0,74,29.55,10.0,SSW,3.5,-,0.01,,Clear,210,2014-01-19 16:15:00
10:36 AM,31.8,23.4,71,29.54,10.0,SW,3.5,-,0.01,,Clear,220,2014-01-19 16:36:00
10:55 AM,32.0,23.7,71,29.52,10.0,South,3.5,-,0.01,,Clear,190,2014-01-19 16:55:00
11:16 AM,32.7,24.3,71,29.51,10.0,SSW,4.6,-,N/A,,Clear,210,2014-01-19 17:16:00
11:36 AM,33.3,24.4,70,29.49,10.0,SSW,3.5,-,0.01,,Clear,210,2014-01-19 17:36:00
11:55 AM,33.8,24.8,70,29.48,10.0,SW,4.6,-,0.01,,Clear,220,2014-01-19 17:55:00
12:16 PM,34.0,25.0,70,29.48,10.0,SW,6.9,-,N/A,,Clear,220,2014-01-19 18:16:00
12:36 PM,34.7,25.2,68,29.49,10.0,SW,8.1,-,N/A,,Clear,230,2014-01-19 18:36:00
12:55 PM,34.9,25.3,68,29.48,10.0,WSW,9.2,-,N/A,,Clear,250,2014-01-19 18:55:00
1:16 PM,35.4,25.7,68,29.46,10.0,WSW,8.1,-,N/A,,Clear,250,2014-01-19 19:16:00
1:36 PM,35.2,25.7,68,29.45,10.0,WSW,5.8,-,N/A,,Clear,250,2014-01-19 19:36:00
1:55 PM,35.6,25.7,67,29.44,10.0,WSW,6.9,-,N/A,,Clear,250,2014-01-19 19:55:00
2:16 PM,35.6,26.1,68,29.46,10.0,West,8.1,-,N/A,,Clear,260,2014-01-19 20:16:00
2:36 PM,35.8,26.4,69,29.46,10.0,West,8.1,-,N/A,,Clear,270,2014-01-19 20:36:00
2:55 PM,35.6,26.6,70,29.47,10.0,West,9.2,-,N/A,,Clear,260,2014-01-19 20:55:00
3:16 PM,35.8,26.6,69,29.47,10.0,West,8.1,-,N/A,,Clear,270,2014-01-19 21:16:00
3:35 PM,35.6,26.6,70,29.48,10.0,West,6.9,-,N/A,,Clear,280,2014-01-19 21:35:00
3:56 PM,35.6,26.6,70,29.49,10.0,WNW,8.1,-,N/A,,Clear,300,2014-01-19 21:56:00
4:16 PM,34.7,26.6,72,29.51,10.0,WNW,9.2,18.4,N/A,,Clear,290,2014-01-19 22:16:00
4:35 PM,34.0,26.6,74,29.53,10.0,WNW,10.4,18.4,N/A,,Scattered Clouds,290,2014-01-19 22:35:00
4:56 PM,33.8,27.1,77,29.54,10.0,WNW,9.2,-,N/A,,Mostly Cloudy,290,2014-01-19 22:56:00
5:16 PM,33.3,26.6,77,29.54,10.0,West,6.9,-,N/A,,Overcast,270,2014-01-19 23:16:00
5:35 PM,32.5,26.4,78,29.56,10.0,West,8.1,-,N/A,,Overcast,260,2014-01-19 23:35:00
5:56 PM,32.5,26.4,78,29.57,10.0,West,10.4,-,N/A,,Overcast,280,2014-01-19 23:56:00
6:16 PM,32.4,26.4,79,29.59,10.0,WNW,8.1,-,N/A,,Overcast,290,2014-01-20 00:16:00
6:35 PM,32.0,26.2,79,29.60,10.0,NW,6.9,-,N/A,,Overcast,310,2014-01-20 00:35:00
6:56 PM,32.0,25.7,78,29.61,10.0,NW,9.2,-,N/A,,Overcast,310,2014-01-20 00:56:00
7:16 PM,32.0,25.7,78,29.62,10.0,West,5.8,-,N/A,,Overcast,280,2014-01-20 01:16:00
7:35 PM,31.5,25.3,78,29.64,10.0,WNW,8.1,-,N/A,,Overcast,290,2014-01-20 01:35:00
7:56 PM,30.0,24.6,80,29.65,10.0,WNW,4.6,-,N/A,,Overcast,290,2014-01-20 01:56:00
8:16 PM,30.0,24.6,80,29.66,10.0,West,4.6,-,N/A,,Overcast,280,2014-01-20 02:16:00
8:36 PM,29.5,24.1,80,29.66,10.0,West,5.8,-,N/A,,Overcast,280,2014-01-20 02:36:00
8:56 PM,29.3,23.9,80,29.67,10.0,WNW,8.1,-,N/A,,Overcast,290,2014-01-20 02:56:00
9:15 PM,28.2,23.0,81,29.67,10.0,West,5.8,-,N/A,,Mostly Cloudy,280,2014-01-20 03:15:00
9:36 PM,28.4,23.5,82,29.69,10.0,West,6.9,-,N/A,,Overcast,260,2014-01-20 03:36:00
9:56 PM,28.8,23.5,81,29.69,10.0,West,4.6,-,N/A,,Overcast,260,2014-01-20 03:56:00
10:15 PM,28.9,23.5,80,29.69,10.0,West,4.6,-,N/A,,Overcast,260,2014-01-20 04:15:00
10:36 PM,28.9,23.5,80,29.69,10.0,WSW,4.6,-,N/A,,Overcast,250,2014-01-20 04:36:00
10:55 PM,28.8,23.7,81,29.71,10.0,WSW,5.8,-,N/A,,Overcast,250,2014-01-20 04:55:00
11:16 PM,28.9,24.4,83,29.71,10.0,West,5.8,-,N/A,,Overcast,260,2014-01-20 05:16:00
11:36 PM,29.1,24.8,84,29.71,10.0,WSW,5.8,-,N/A,,Overcast,240,2014-01-20 05:36:00
11:55 PM,29.3,25.2,85,29.71,10.0,WSW,5.8,-,N/A,,Overcast,250,2014-01-20 05:55:00